Regional Weather Roundup
Issued by NWS Mobile, AL

Home | Current Version | Previous Version | Text Only | Print | Product List | Glossary On
Versions: 1 2 3 4 5 6 7 8 9 10 11 12 13 14 15 16 17 18 19 20 21 22 23 24 25 26 27 28 29 30 31 32 33 34 35 36 37 38 39 40 41 42 43 44 45 46 47 48 49 50
000
ASUS44 KMOB 042217
RWRMOB
REGIONAL WEATHER ROUNDUP
NATIONAL WEATHER SERVICE MOBILE AL
500 PM CDT FRI SEP 04 2015

ALZ061>064-042300-
COASTAL ALABAMA


CITY           SKY/WX    TMP DP  RH WIND       PRES   REMARKS
MOBILE REG APT MOSUNNY   89  74  60 SW9       29.96F HX  98
BROOKLEY FIELD MOSUNNY   89  76  65 S7        29.95F HX 100
GULF SHORES    CLEAR     86  75  71 SW6       29.95S

$$

ALZ051>060-042300-
INTERIOR SOUTHWEST AND SOUTH CENTRAL ALABAMA


CITY           SKY/WX    TMP DP  RH WIND       PRES   REMARKS
ANDALUSIA/OPP  LGT RAIN  86  71  60 N6        29.95S
EVERGREEN      MOSUNNY   86  77  74 W3        29.95F HX  97
FLORALA        PTCLDY    83  72  69 SW5       29.96S
GREENVILLE     FAIR      93  66  40 N7        29.94S HX  96

$$

FLZ001>006-042300-
WESTERN FLORIDA PANHANDLE


CITY           SKY/WX    TMP DP  RH WIND       PRES   REMARKS
CRESTVIEW      MOSUNNY   87  73  62 S10       29.95F
DESTIN         MOSUNNY   88  76  67 SW9       29.94F HX  99
DUKE FIELD     FAIR      89  71  54 SW7       29.93F
MARY ESTHER    MOSUNNY   84  73  69 W9        29.93F
MILTON         MOCLDY    91  73  55 CALM      29.93F HX  99
PENSACOLA      SUNNY     88  71  57 SW7       29.94S
NAS PENSACOLA  MOSUNNY   87  73  62 SW8       29.94S
VALPARAISO     PTSUNNY   89  73  57 SW7       29.94S HX  96

$$

...MARINE OBSERVATIONS...

STATION/POSITION TIME  SKY/WX   TEMP    WIND        PRES    VSBY
                                AIR SEA DIR/SP/G
                 (UTC)          (F)     (DEG/KT/KT) (MB)    (MI)
PASCAGOULA       2100            86     190/  7/ 11 1014.5F
PETIT BOIS ISL   2100            87     180/  5/  8 1015.1F
E DAUPHIN ISLAND 2200            85     210/  8/ 10 1014.2S
MIDDLE BAY LIGHT 2100            84     200/ 10     1014.2S
USCG MOBILE BAY  2100            87 86  170/  8/ 12 1013.2F
STATE DOCKS      2100            89 86              1013.8F
MEAHER PARK      2200            86     190/ 12     1012.9F
FORT MORGAN      2100            85     220/  8/  9 1014.0F
12 S ORANGE BCH  2150            84 87  230/  8/ 10 1013.8F
WVE H/P(F/S)=  1/ 4

PENSACOLA BAY    2100            88 86  210/  5/  7 1014.4F
64 S DAUPHIN ISL 2150            83 87  250/  8/ 10 1015.0F
WVE H/P(F/S)=  1/ 4

115 SE PENSACOLA 2150            80 86  270/ 12/ 14 1015.2F
WVE H/P(F/S)=  1/ 6

MID GULF/42001   2200            85 87  100/  8/ 10 1014.6R
EAST GULF/42003  2150            83 87  350/ 12/ 14 1014.7F
WVE H/P(F/S)=  1/ 3


$$

...NEARBY LOCATIONS

CITY           SKY/WX    TMP DP  RH WIND       PRES   REMARKS
GULFPORT       PTSUNNY   88  74  63 S8        29.94F HX  96
BILOXI         MOSUNNY   87  75  67 SW13      29.95S HX  96
PASCAGOULA     SUNNY     87  74  64 SW8       29.95S HX  95
HATTIESBURG    SUNNY     96  61  31 VRB5      29.94S HX  96
LAUREL         SUNNY     95  63  34 E6        29.96S HX  96
MERIDIAN       MOSUNNY   88  73  61 CALM      29.94F HX  95
MERIDIAN NAS   MOSUNNY   89  71  55 CALM      29.94F HX  95
MONTGOMERY     MOSUNNY   91  71  51 N3        29.94F HX  97
MAXWELL AFB    MOSUNNY   90  73  56 NW6       29.93F HX  98
TROY           PTSUNNY   87  71  58 SW5       29.94F
FORT RUCKER    MOSUNNY   82  70  66 N9        29.93S
DALEVILLE      MOSUNNY   84  74  73 NW5       29.94R
DOTHAN         SUNNY     88  71  57 W5        29.97F

$$

...OTHER SURROUNDING LOCATIONS...

CITY           SKY/WX    TMP DP  RH WIND       PRES   REMARKS
BIRMINGHAM     PTSUNNY   91  70  49 N5        29.99S HX  96
TUSCALOOSA     MOSUNNY   94  68  42 N9        29.95S HX  98
COLUMBUS GA    MOSUNNY   92  65  40 NE6       29.93S
PANAMA CITY    NOT AVBL
TALLAHASSEE    PTSUNNY   86  72  62 S6        29.92F
BATON ROUGE    MOSUNNY   88  73  61 SW14      29.95F HX  95
NEW ORLEANS    PTSUNNY   82  71  69 S3        29.97S
SLIDELL        MOSUNNY   88  76  67 MISG      29.95S HX  99
JACKSON        MOSUNNY   97  66  36 N6        29.93S HX 100
MCCOMB         MOSUNNY   90  69  50 SE8       29.94S

$$

...SURROUNDING MARINE OBSERVATIONS...

STATION/POSITION TIME  SKY/WX   TEMP    WIND        PRES    VSBY
                                AIR SEA DIR/SP/G
                 (UTC)          (F)     (DEG/KT/KT) (MB)    (MI)
WAVELAND         2100            85 88  170/ 10/ 14 1014.8F
PASCAGOULA RGN A 2100            87     200/  7/ 10 1014.1F
PASCAGOULA PORT  2100               86                N/A
GRAND ISLE       2100            84 86  250/  8/ 11 1014.9F
SOUTHWEST PASS   2200                                 N/A
PILOT STATION E  2100            86 87  270/  9/ 12 1015.5F
SHELL BEACH      2100            83 87  220/ 14/ 16 1014.1F
PANAMA CITY      2100            84 87  260/ 13/ 14 1013.8S
APALACHICOLA     2100            87 87  270/  8/ 12 1013.9F
TYNDALL TOWER C  2200            84     250/ 14/ 15 1014.2S
S APLCHCLA/42036 2150            85 87  290/  8/ 10 1014.8R
WVE H/P(F/S)=  1/ 3


$$



USA.gov is the U.S. government's official web portal to all federal, state and local government web resources and services.